This is the latest recevied weather packets stored in our database for station/object W4GAP. If no packets are shown the sender has not sent any weather packets the latest 10 day(s).
| Time | Temp. | Humidity | Pressure | Rain* | Wind** | Luminosity | Snow |
|---|---|---|---|---|---|---|---|
| 1777412267 | 18.33° C | 88% | 1015.7 hPa | 0 mm | - | 23 W/m² | - |
| 1777411963 | 18.33° C | 88% | 1015.5 hPa | 0 mm | - | 28 W/m² | - |
| 1777411662 | 18.33° C | 88% | 1015.4 hPa | 0 mm | - | 37 W/m² | - |
| 1777411357 | 18.33° C | 88% | 1015.3 hPa | 0 mm | - | 42 W/m² | - |
| 1777411056 | 18.33° C | 89% | 1015.7 hPa | 0 mm | - | 40 W/m² | - |
| 1777410752 | 18.33° C | 89% | 1015.6 hPa | 0 mm | - | 46 W/m² | - |
| 1777410451 | 18.33° C | 89% | 1015.3 hPa | 0 mm | - | 39 W/m² | - |
| 1777410150 | 18.33° C | 90% | 1015.7 hPa | 0 mm | - | 25 W/m² | - |
| 1777409845 | 18.33° C | 91% | 1015.8 hPa | 0 mm | - | 66 W/m² | - |
| 1777409541 | 17.78° C | 90% | 1016.2 hPa | 0 mm | - | 48 W/m² | - |
| 1777409237 | 17.78° C | 90% | 1015.8 hPa | 0 mm | - | 45 W/m² | - |
| 1777408933 | 17.78° C | 90% | 1016.4 hPa | 0 mm | - | 35 W/m² | - |
| 1777408629 | 17.78° C | 91% | 1016.5 hPa | 0 mm | - | 34 W/m² | - |
| 1777408325 | 17.78° C | 91% | 1016.7 hPa | 0 mm | - | 44 W/m² | - |
| 1777408024 | 17.78° C | 90% | 1016.7 hPa | 0 mm | - | 47 W/m² | - |
| 1777407722 | 17.78° C | 91% | 1016.6 hPa | 0 mm | - | 45 W/m² | - |
| 1777407417 | 17.22° C | 91% | 1016.4 hPa | 0 mm | - | 57 W/m² | - |
| 1777407112 | 17.22° C | 92% | 1016.7 hPa | 0 mm | - | 77 W/m² | - |
| 1777406807 | 17.22° C | 92% | 1016.9 hPa | 0 mm | - | 40 W/m² | - |
| 1777406503 | 17.22° C | 92% | 1017.1 hPa | 0 mm | - | 47 W/m² | - |
| 1777406199 | 17.22° C | 93% | 1017.5 hPa | 0 mm | - | 39 W/m² | - |
| 1777405898 | 16.67° C | 92% | 1017.4 hPa | 0 mm | - | 39 W/m² | - |
| 1777405594 | 16.67° C | 93% | 1017.6 hPa | 0 mm | - | 40 W/m² | - |
| 1777405292 | 16.67° C | 93% | 1017.3 hPa | 0 mm | - | 46 W/m² | - |
| 1777404992 | 16.67° C | 93% | 1017.8 hPa | 0 mm | - | 32 W/m² | - |
* Rain latest hour (hover to see other rain measurements)
** Current wind speed in m/s (hover to see current wind gust speed)